FW9306 Weather Reports


Display with metric or nautical units.
time (UTC)temp
F
wind
direction
speed
MPH
gust
MPH
rain 1hr
in
rain 24hr
in
rain mn
in
humidity
%
barometer
mb
20260504174226 75 252 7.0 8.0 0.00 0.00 0.00 29 1013.6
20260504173721 75 236 7.0 8.0 0.00 0.00 0.00 29 1013.8
20260504173219 74 216 11.0 15.0 0.00 0.00 0.00 28 1013.6
20260504172715 75 236 7.0 10.0 0.00 0.00 0.00 29 1013.6
20260504172212 74 288 8.0 9.0 0.00 0.00 0.00 28 1013.7
20260504171708 74 270 9.0 10.0 0.00 0.00 0.00 28 1013.8
20260504171206 74 258 10.0 11.0 0.00 0.00 0.00 28 1013.6
20260504170702 74 260 8.0 9.0 0.00 0.00 0.00 29 1013.7
20260504170200 75 270 9.0 10.0 0.00 0.00 0.00 29 1013.6
20260504160118 74 226 11.0 15.0 0.00 0.00 0.00 31 1013.7
20260504151045 73 207 7.0 7.0 0.00 0.00 0.00 34 1013.5
20260504150543 73 226 7.0 8.0 0.00 0.00 0.00 34 1013.3
20260504141008 71 142 0.0 1.0 0.00 0.00 0.00 35 1013.4
20260504140505 71 209 1.0 1.0 0.00 0.00 0.00 36 1013.6
20260504130429 68 339 1.0 1.0 0.00 0.00 0.00 39 1012.7
20260504110317 66 194 0.0 1.0 0.00 0.00 0.00 43 1012.2
20260504100234 66 35 1.0 1.0 0.00 0.00 0.00 39 1012.1
20260504081628 66 109 2.0 2.0 0.00 0.00 0.00 36 1011.8
20260504081123 68 210 1.0 1.0 0.00 0.00 0.00 35 1012.0
20260504080620 68 235 1.0 1.0 0.00 0.00 0.00 35 1012.1
20260504080117 68 164 1.0 1.0 0.00 0.00 0.00 34 1012.1
20260504050433 74 95 3.0 3.0 0.00 0.00 0.00 28 1012.3
20260504045930 75 208 3.0 3.0 0.00 0.00 0.00 28 1012.4
20260504045426 75 275 3.0 5.0 0.00 0.00 0.00 28 1012.7
20260504044922 75 264 4.0 5.0 0.00 0.00 0.00 28 1012.7
20260504044420 75 242 6.0 6.0 0.00 0.00 0.00 27 1012.8
20260504043917 75 255 5.0 6.0 0.00 0.00 0.00 27 1012.8
20260504043414 75 245 7.0 9.0 0.00 0.00 0.00 27 1012.5
20260504042911 75 248 7.0 8.0 0.00 0.00 0.00 27 1012.4
20260504042408 76 232 8.0 9.0 0.00 0.00 0.00 26 1012.4
20260504041904 76 248 7.0 8.0 0.00 0.00 0.00 26 1012.4
20260504041400 76 266 12.0 13.0 0.00 0.00 0.00 26 1012.2
20260504040856 76 252 9.0 10.0 0.00 0.00 0.00 26 1012.3
20260504040354 76 276 9.0 13.0 0.00 0.00 0.00 26 1012.1
20260504035850 76 263 10.0 13.0 0.00 0.00 0.00 25 1012.0
20260504035348 76 241 5.0 6.0 0.00 0.00 0.00 24 1011.8
20260504034844 76 279 7.0 7.0 0.00 0.00 0.00 23 1011.7
20260504034342 77 236 7.0 8.0 0.00 0.00 0.00 23 1011.8
20260504033838 77 232 5.0 6.0 0.00 0.00 0.00 23 1011.1
20260504033337 77 245 7.0 9.0 0.00 0.00 0.00 22 1011.5
20260504032833 77 247 6.0 7.0 0.00 0.00 0.00 22 1011.5
20260504032330 77 262 10.0 11.0 0.00 0.00 0.00 22 1011.5
20260504031827 78 242 8.0 10.0 0.00 0.00 0.00 22 1011.5
20260504031324 78 219 10.0 10.0 0.00 0.00 0.00 21 1010.8
20260504030820 78 236 8.0 10.0 0.00 0.00 0.00 21 1010.8
20260504030318 78 260 6.0 8.0 0.00 0.00 0.00 21 1010.9
20260504025814 78 235 7.0 9.0 0.00 0.00 0.00 21 1010.6
20260504025311 79 256 6.0 7.0 0.00 0.00 0.00 20 1010.6
20260504024808 79 250 9.0 10.0 0.00 0.00 0.00 19 1010.6
20260504024304 79 240 7.0 8.0 0.00 0.00 0.00 19 1010.3
20260504023801 79 214 7.0 8.0 0.00 0.00 0.00 19 1010.2
20260504023257 80 198 7.0 8.0 0.00 0.00 0.00 19 1010.3
20260504022753 80 256 9.0 9.0 0.00 0.00 0.00 18 1009.9
20260504022250 80 229 10.0 13.0 0.00 0.00 0.00 18 1009.9
20260504021747 81 270 9.0 10.0 0.00 0.00 0.00 17 1009.7
20260504021244 82 240 7.0 8.0 0.00 0.00 0.00 16 1010.1
20260504020741 81 259 7.0 7.0 0.00 0.00 0.00 16 1009.7
20260504020237 82 246 8.0 9.0 0.00 0.00 0.00 16 1009.6
20260504015733 82 260 7.0 8.0 0.00 0.00 0.00 16 1009.5
20260504015230 82 248 9.0 10.0 0.00 0.00 0.00 16 1009.3
20260504014726 82 228 8.0 9.0 0.00 0.00 0.00 16 1009.5
20260504014223 82 261 13.0 14.0 0.00 0.00 0.00 16 1009.5
20260504013721 83 211 11.0 14.0 0.00 0.00 0.00 16 1009.4
20260504013218 83 241 9.0 11.0 0.00 0.00 0.00 16 1009.2
20260504012714 83 227 9.0 11.0 0.00 0.00 0.00 16 1009.4
20260504012212 83 228 11.0 15.0 0.00 0.00 0.00 16 1009.0
20260504011709 84 286 15.0 17.0 0.00 0.00 0.00 15 1009.0
20260504011206 84 266 12.0 15.0 0.00 0.00 0.00 16 1009.4
20260504010702 84 258 12.0 14.0 0.00 0.00 0.00 15 1009.4
20260504010157 84 259 16.0 21.0 0.00 0.00 0.00 15 1009.4
20260504005654 84 238 13.0 16.0 0.00 0.00 0.00 15 1009.5
20260504005151 84 219 12.0 13.0 0.00 0.00 0.00 15 1009.2
20260504004649 84 217 15.0 18.0 0.00 0.00 0.00 15 1009.6
20260504004146 84 247 16.0 18.0 0.00 0.00 0.00 15 1009.5
20260504003642 85 270 13.0 15.0 0.00 0.00 0.00 16 1009.5
20260504003139 85 215 14.0 16.0 0.00 0.00 0.00 15 1009.5
20260504002636 85 249 16.0 17.0 0.00 0.00 0.00 15 1009.3
20260504002134 85 243 15.0 17.0 0.00 0.00 0.00 16 1009.3
20260504001631 86 246 11.0 11.0 0.00 0.00 0.00 15 1009.3
20260504001127 86 226 15.0 21.0 0.00 0.00 0.00 15 1009.2
20260504000625 86 250 17.0 20.0 0.00 0.00 0.00 15 1009.3
20260504000122 86 253 18.0 20.0 0.00 0.00 0.00 15 1009.3
20260503235620 87 239 17.0 20.0 0.00 0.00 0.00 16 1009.4
20260503235116 86 234 18.0 23.0 0.00 0.00 0.00 16 1009.2
20260503234614 87 231 15.0 17.0 0.00 0.00 0.00 16 1009.2
20260503234112 87 226 11.0 13.0 0.00 0.00 0.00 15 1009.2
20260503233609 87 247 13.0 15.0 0.00 0.00 0.00 16 1008.9
20260503233104 87 223 14.0 18.0 0.00 0.00 0.00 16 1009.1
20260503232602 88 249 10.0 11.0 0.00 0.00 0.00 16 1009.1
20260503232059 87 227 14.0 17.0 0.00 0.00 0.00 17 1009.3
20260503231557 88 252 14.0 16.0 0.00 0.00 0.00 17 1008.9
20260503231053 88 248 10.0 13.0 0.00 0.00 0.00 17 1009.1
20260503230550 88 263 7.0 9.0 0.00 0.00 0.00 17 1009.2
20260503230047 88 231 10.0 11.0 0.00 0.00 0.00 17 1009.2
20260503225544 88 226 13.0 16.0 0.00 0.00 0.00 17 1009.2
20260503225039 88 197 9.0 11.0 0.00 0.00 0.00 17 1009.5
20260503224537 88 243 8.0 10.0 0.00 0.00 0.00 17 1009.5
20260503224034 88 236 8.0 11.0 0.00 0.00 0.00 18 1009.6
20260503223532 89 303 7.0 8.0 0.00 0.00 0.00 17 1009.4
20260503223027 88 242 7.0 9.0 0.00 0.00 0.00 17 1009.5
20260503222526 88 236 9.0 10.0 0.00 0.00 0.00 17 1009.7
20260503222024 88 258 10.0 11.0 0.00 0.00 0.00 17 1009.5
20260503221522 87 233 9.0 11.0 0.00 0.00 0.00 17 1009.5
20260503221019 87 235 10.0 11.0 0.00 0.00 0.00 17 1009.6
20260503220515 87 216 5.0 7.0 0.00 0.00 0.00 18 1009.6
20260503220012 87 231 8.0 9.0 0.00 0.00 0.00 18 1009.7
20260503215509 87 225 5.0 6.0 0.00 0.00 0.00 18 1009.8
20260503215006 87 209 4.0 5.0 0.00 0.00 0.00 19 1009.7
20260503214504 87 200 8.0 9.0 0.00 0.00 0.00 19 1009.9
20260503214000 86 227 8.0 9.0 0.00 0.00 0.00 20 1010.2
20260503213459 86 190 0.0 0.0 0.00 0.00 0.00 24 1010.3
20260503212955 87 187 6.0 8.0 0.00 0.00 0.00 23 1010.4
20260503212453 87 216 2.0 2.0 0.00 0.00 0.00 24 1010.5
20260503211950 87 238 6.0 7.0 0.00 0.00 0.00 25 1010.5
20260503211447 87 241 14.0 17.0 0.00 0.00 0.00 26 1010.1
20260503210942 87 198 2.0 3.0 0.00 0.00 0.00 25 1010.6
20260503210439 87 217 5.0 7.0 0.00 0.00 0.00 26 1010.7
20260503205934 87 178 5.0 6.0 0.00 0.00 0.00 26 1010.6
20260503205431 86 140 2.0 2.0 0.00 0.00 0.00 26 1010.7
20260503204927 86 128 1.0 1.0 0.00 0.00 0.00 27 1010.8
20260503204425 85 196 1.0 2.0 0.00 0.00 0.00 27 1010.8
20260503203922 86 74 6.0 8.0 0.00 0.00 0.00 27 1011.1
20260503203419 86 119 2.0 7.0 0.00 0.00 0.00 27 1011.0
20260503202916 86 171 1.0 1.0 0.00 0.00 0.00 27 1011.5
20260503202414 85 183 3.0 3.0 0.00 0.00 0.00 27 1011.5
20260503201912 85 167 3.0 5.0 0.00 0.00 0.00 27 1011.4
20260503201409 86 155 5.0 7.0 0.00 0.00 0.00 27 1011.6
20260503200907 85 152 3.0 5.0 0.00 0.00 0.00 28 1011.5
20260503200402 84 92 8.0 10.0 0.00 0.00 0.00 29 1011.7
20260503195859 84 128 5.0 8.0 0.00 0.00 0.00 28 1011.6
20260503195356 84 123 5.0 8.0 0.00 0.00 0.00 28 1011.7
20260503194853 84 124 2.0 5.0 0.00 0.00 0.00 28 1011.4
20260503194349 84 118 1.0 2.0 0.00 0.00 0.00 28 1011.9
20260503193845 84 122 3.0 6.0 0.00 0.00 0.00 28 1012.1
20260503193341 84 187 5.0 7.0 0.00 0.00 0.00 28 1012.1
20260503192837 83 195 2.0 3.0 0.00 0.00 0.00 28 1011.8
20260503192333 85 199 6.0 7.0 0.00 0.00 0.00 26 1012.1
20260503191830 85 159 1.0 2.0 0.00 0.00 0.00 25 1012.1
20260503191327 84 190 8.0 9.0 0.00 0.00 0.00 25 1012.2
20260503190823 85 207 5.0 6.0 0.00 0.00 0.00 27 1012.2
20260503190321 84 208 5.0 7.0 0.00 0.00 0.00 29 1012.4
20260503185818 82 136 3.0 5.0 0.00 0.00 0.00 31 1012.4
20260503185313 82 96 6.0 8.0 0.00 0.00 0.00 31 1012.5
20260503184808 82 112 3.0 3.0 0.00 0.00 0.00 32 1012.7
20260503184304 81 153 5.0 8.0 0.00 0.00 0.00 32 1012.9
20260503183800 82 192 2.0 5.0 0.00 0.00 0.00 32 1013.1
20260503183258 81 150 4.0 5.0 0.00 0.00 0.00 32 1013.3
20260503182755 82 144 8.0 10.0 0.00 0.00 0.00 32 1013.4
20260503182254 81 221 5.0 7.0 0.00 0.00 0.00 32 1013.2
20260503181750 81 204 4.0 7.0 0.00 0.00 0.00 33 1013.3
20260503181247 81 228 3.0 10.0 0.00 0.00 0.00 32 1013.2
20260503180743 82 148 5.0 8.0 0.00 0.00 0.00 32 1013.6
20260503180242 81 227 4.0 6.0 0.00 0.00 0.00 33 1013.4
20260503175738 80 141 7.0 11.0 0.00 0.00 0.00 33 1013.4
20260503175237 80 93 2.0 5.0 0.00 0.00 0.00 33 1013.6
20260503174732 80 226 3.0 5.0 0.00 0.00 0.00 34 1013.6